GW1125 Weather Reports


Display with metric or nautical units.
time (UTC)temp
F
wind
direction
speed
MPH
gust
MPH
rain 1hr
in
rain 24hr
in
rain mn
in
humidity
%
barometer
mb
20260902125642 55 116 0.0 0.0 0.00 0.00 0.00 97 1006.5
20260902124620 55 116 0.0 0.0 0.00 0.00 0.00 97 1006.7
20260902123547 56 116 0.0 0.0 0.00 0.00 0.00 97 1006.8
20260902122511 56 116 0.0 0.0 0.00 0.00 0.00 97 1006.7
20260902121451 56 116 0.0 0.0 0.00 0.00 0.00 97 1006.8
20260902120441 56 116 0.0 0.0 0.00 0.00 0.00 97 1006.9
20260902115440 56 116 0.0 0.0 0.00 0.00 0.00 96 1006.9
20260902114419 56 116 0.0 0.0 0.00 0.00 0.00 96 1006.9
20260902113344 56 117 0.0 0.0 0.00 0.00 0.00 96 1007.0
20260902112313 57 116 0.0 0.0 0.00 0.00 0.00 95 1007.1
20260902111304 57 116 0.0 0.0 0.00 0.00 0.00 95 1007.2
20260902110242 57 116 0.0 0.0 0.00 0.00 0.00 95 1007.3
20260902105240 58 116 0.0 0.0 0.00 0.00 0.00 95 1007.2
20260902104212 57 116 0.0 0.0 0.00 0.00 0.00 95 1007.4
20260902103208 57 117 0.0 0.0 0.00 0.00 0.00 95 1007.5
20260902102149 57 117 0.0 0.0 0.00 0.00 0.00 95 1007.6
20260902101131 57 117 0.0 0.0 0.00 0.00 0.00 95 1007.6
20260902100112 58 117 0.0 0.0 0.00 0.00 0.00 94 1007.6
20260902095110 58 117 0.0 0.0 0.00 0.00 0.00 94 1007.8
20260902094052 58 117 0.0 0.0 0.00 0.00 0.00 93 1007.7
20260902093021 58 116 0.0 0.0 0.00 0.00 0.00 93 1007.5
20260902091944 59 116 0.0 0.0 0.00 0.00 0.00 93 1007.9
20260902090931 59 116 0.0 0.0 0.00 0.00 0.00 93 1007.8
20260902085915 59 117 0.0 0.0 0.00 0.00 0.00 93 1007.8
20260902084847 59 119 0.0 0.0 0.00 0.00 0.00 93 1008.0
20260902083828 59 119 0.0 0.0 0.00 0.00 0.00 93 1008.1
20260902082809 59 119 0.0 0.0 0.00 0.00 0.00 92 1008.3
20260902081759 59 119 0.0 0.0 0.00 0.00 0.00 92 1008.3
20260902080743 59 119 0.0 0.0 0.00 0.00 0.00 92 1008.2
20260902075659 59 119 0.0 0.0 0.00 0.00 0.00 91 1008.4
20260902074636 60 119 0.0 0.0 0.00 0.00 0.00 91 1008.5
20260902073635 60 119 0.0 0.0 0.00 0.00 0.00 90 1008.6
20260902072627 60 119 0.0 0.0 0.00 0.00 0.00 90 1008.6
20260902071616 60 119 0.0 0.0 0.00 0.00 0.00 90 1008.5
20260902070606 60 119 0.0 0.0 0.00 0.00 0.00 90 1008.6
20260902065553 60 119 0.0 0.0 0.00 0.00 0.00 90 1008.8
20260902064532 60 119 0.0 0.0 0.00 0.00 0.00 90 1008.7
20260902063517 60 119 0.0 0.0 0.00 0.00 0.00 90 1008.7
20260902062510 60 119 0.0 0.0 0.00 0.00 0.00 89 1008.7
20260902061504 60 119 0.0 0.0 0.00 0.00 0.00 89 1008.7
20260902060449 60 119 0.0 0.0 0.00 0.00 0.00 89 1008.6
20260902055436 60 119 0.0 0.0 0.00 0.00 0.00 89 1008.8
20260902054419 60 119 0.0 0.0 0.00 0.00 0.00 89 1008.6
20260902053403 60 119 0.0 0.0 0.00 0.00 0.00 89 1009.0
20260902052400 60 119 0.0 0.0 0.00 0.00 0.00 89 1008.9
20260902051350 60 119 0.0 0.0 0.00 0.00 0.00 89 1009.0
20260902050300 61 120 0.0 0.0 0.00 0.00 0.00 89 1008.7
20260902045240 61 120 0.0 0.0 0.00 0.00 0.00 88 1009.0
20260902044221 61 120 0.0 0.0 0.00 0.00 0.00 88 1008.9
20260902043206 61 120 0.0 0.0 0.00 0.00 0.00 87 1009.0
20260902042146 61 116 0.0 0.0 0.00 0.00 0.00 88 1009.0
20260902041122 61 116 0.0 0.0 0.00 0.00 0.00 88 1009.1
20260902040116 61 116 0.0 0.0 0.00 0.00 0.00 88 1009.0
20260902035114 61 118 0.0 0.0 0.00 0.00 0.00 88 1009.2
20260902034056 61 119 0.0 0.0 0.00 0.00 0.00 88 1009.1
20260902033050 61 114 0.0 0.0 0.00 0.00 0.00 87 1009.1
20260902032043 61 123 0.0 0.0 0.00 0.00 0.00 87 1009.0
20260902031017 62 122 0.0 0.0 0.00 0.00 0.00 86 1009.1
20260902030015 62 123 0.0 0.0 0.00 0.00 0.00 85 1008.9
20260902025008 63 122 0.0 0.0 0.00 0.00 0.00 81 1009.0
20260902023955 63 128 2.0 3.0 0.00 0.00 0.00 80 1008.7
20260902022951 64 110 0.0 1.0 0.00 0.00 0.00 77 1008.7
20260902021926 65 111 0.0 0.0 0.00 0.00 0.00 76 1008.6
20260902020911 65 119 0.0 0.0 0.00 0.00 0.00 75 1008.7
20260902015836 65 112 0.0 0.0 0.00 0.00 0.00 75 1008.6
20260902014827 65 115 0.0 0.0 0.00 0.00 0.00 75 1008.5
20260902013813 65 112 0.0 0.0 0.00 0.00 0.00 75 1008.8
20260902012758 65 113 1.0 2.0 0.00 0.00 0.00 76 1008.7
20260902011744 65 116 0.0 1.0 0.00 0.00 0.00 77 1008.5
20260902010732 65 121 0.0 0.0 0.00 0.00 0.00 77 1008.6
20260902005732 65 110 0.0 0.0 0.00 0.00 0.00 77 1008.6
20260902004731 65 113 2.0 2.0 0.00 0.00 0.00 76 1008.6
20260902003707 66 111 0.0 0.0 0.00 0.00 0.00 75 1008.4
20260902002650 66 114 0.0 0.0 0.00 0.00 0.00 75 1008.5
20260902001626 65 110 0.0 0.0 0.00 0.00 0.00 78 1008.6
20260902000613 66 93 1.0 2.0 0.00 0.00 0.00 77 1008.8
20260901235548 66 117 0.0 1.0 0.00 0.00 0.00 75 1008.6
20260901234526 66 106 0.0 0.0 0.00 0.00 0.00 76 1008.5
20260901233511 65 110 0.0 0.0 0.00 0.00 0.00 77 1008.6
20260901232501 65 126 1.0 1.0 0.00 0.00 0.00 77 1008.7
20260901231445 65 105 0.0 0.0 0.00 0.00 0.00 78 1008.7
20260901230440 65 121 0.0 0.0 0.00 0.00 0.00 79 1008.6
20260901225431 64 100 0.0 0.0 0.00 0.00 0.00 79 1008.7
20260901224428 64 102 0.0 0.0 0.00 0.00 0.00 79 1008.8
20260901223417 64 109 0.0 0.0 0.00 0.00 0.00 80 1008.8
20260901222411 64 95 1.0 1.0 0.00 0.00 0.00 79 1008.5
20260901221403 64 108 0.0 0.0 0.00 0.00 0.00 79 1008.8
20260901220335 65 163 1.0 1.0 0.00 0.00 0.00 78 1008.6
20260901215301 65 102 0.0 0.0 0.00 0.00 0.00 77 1008.7
20260901214241 65 106 0.0 0.0 0.00 0.00 0.00 78 1008.7
20260901213232 65 115 1.0 1.0 0.00 0.00 0.00 76 1008.6
20260901212205 66 105 0.0 0.0 0.00 0.00 0.00 76 1008.8
20260901211159 67 86 1.0 1.0 0.00 0.00 0.00 74 1008.5
20260901210141 66 122 0.0 0.0 0.00 0.00 0.00 73 1008.6
20260901205136 66 116 0.0 1.0 0.00 0.00 0.00 73 1008.7
20260901204129 67 102 0.0 0.0 0.00 0.00 0.00 74 1008.8
20260901203117 66 106 0.0 0.0 0.00 0.00 0.00 76 1008.8
20260901202110 66 133 0.0 1.0 0.00 0.00 0.00 77 1008.9
20260901201106 66 101 0.0 0.0 0.00 0.00 0.00 76 1009.0
20260901200055 65 103 0.0 0.0 0.00 0.00 0.00 80 1008.8
20260901195043 65 107 0.0 0.0 0.00 0.00 0.00 79 1009.1
20260901194029 65 108 0.0 0.0 0.00 0.00 0.00 80 1009.0
20260901193028 65 106 0.0 0.0 0.00 0.00 0.00 80 1009.0
20260901191956 64 105 0.0 0.0 0.00 0.00 0.00 81 1009.0
20260901190956 64 105 0.0 0.0 0.00 0.00 0.00 82 1009.3
20260901185953 63 105 0.0 0.0 0.00 0.00 0.00 83 1009.3
20260901184931 63 105 0.0 0.0 0.00 0.00 0.00 82 1009.3
20260901183914 63 106 0.0 0.0 0.00 0.00 0.00 83 1009.3
20260901182846 63 105 0.0 0.0 0.00 0.00 0.00 83 1009.3
20260901181818 63 104 0.0 0.0 0.00 0.00 0.00 82 1009.1
20260901180748 64 105 0.0 0.0 0.00 0.00 0.00 81 1009.1
20260901175733 64 105 0.0 0.0 0.00 0.00 0.00 80 1009.2
20260901174730 64 103 0.0 0.0 0.00 0.00 0.00 80 1009.0
20260901173727 63 118 0.0 0.0 0.00 0.00 0.00 82 1009.1
20260901172708 63 111 0.0 0.0 0.00 0.00 0.00 82 1008.9
20260901171632 63 108 0.0 0.0 0.00 0.00 0.00 82 1008.8
20260901170612 63 100 0.0 0.0 0.00 0.00 0.00 82 1008.8
20260901165611 62 103 0.0 0.0 0.00 0.00 0.00 83 1008.9
20260901164557 62 103 0.0 0.0 0.00 0.00 0.00 84 1009.1
20260901163547 61 101 0.0 0.0 0.00 0.00 0.00 85 1009.0
20260901162521 61 101 0.0 1.0 0.00 0.00 0.00 87 1009.0
20260901161515 60 109 0.0 0.0 0.00 0.00 0.00 87 1009.1
20260901160457 60 105 0.0 0.0 0.00 0.00 0.00 88 1009.3
20260901155454 59 110 0.0 0.0 0.00 0.00 0.00 90 1009.2
20260901154454 59 112 0.0 0.0 0.00 0.00 0.00 90 1009.4
20260901153454 58 105 0.0 0.0 0.00 0.00 0.00 91 1009.3
20260901152438 58 105 0.0 0.0 0.00 0.00 0.00 92 1009.4
20260901151403 58 110 0.0 0.0 0.00 0.00 0.00 92 1009.3
20260901150359 57 108 0.0 0.0 0.00 0.00 0.00 94 1009.3
20260901145348 56 106 0.0 0.0 0.00 0.00 0.00 96 1009.4
20260901144337 56 107 0.0 0.0 0.00 0.00 0.00 97 1009.2
20260901143315 55 107 0.0 0.0 0.00 0.00 0.00 98 1009.2
20260901142248 54 113 0.0 0.0 0.00 0.00 0.00 98 1009.1
20260901141212 54 108 0.0 0.0 0.00 0.00 0.00 98 1009.0
20260901140145 54 108 0.0 0.0 0.00 0.00 0.00 97 1008.9
20260901135103 53 108 0.0 0.0 0.00 0.00 0.00 97 1008.7
20260901134040 53 108 0.0 0.0 0.00 0.00 0.00 97 1008.6
20260901133026 53 110 0.0 0.0 0.00 0.00 0.00 97 1008.7
20260901132024 53 110 0.0 0.0 0.00 0.00 0.00 97 1008.8
20260901131023 53 109 0.0 0.0 0.00 0.00 0.00 97 1008.7
20260901130000 53 109 0.0 0.0 0.00 0.00 0.00 97 1008.4